JST508 YMML-YSSY

Flight info

Callsign JST508
Flight time 1h 4m
Altitude 37000
Route DOSEL2/34 DOSEL Y59 RIVET
Aircraft A321/M-SDE3FGHIRWY/LB1

Departure

Time 2026-05-04 09:14
Airport Melbourne Airport (YMML)

Arrival

Time 2026-05-04 10:19
Airport Sydney Kingsford Smith International Airport (YSSY)
Time Latitude Longitude Altitude Speed Heading
2026-05-04 08:21 -37.67356 144.84630 356 ft 0 kts 352°
2026-05-04 08:29 -37.67351 144.84629 362 ft 0 kts 352°
2026-05-04 09:01 -37.67363 144.84631 358 ft 3 kts 352°
2026-05-04 09:01 -37.67386 144.84635 361 ft 3 kts 352°
2026-05-04 09:01 -37.67409 144.84639 360 ft 3 kts 352°
2026-05-04 09:01 -37.67429 144.84642 359 ft 3 kts 334°
2026-05-04 09:02 -37.67441 144.84659 356 ft 3 kts 276°
2026-05-04 09:02 -37.67440 144.84687 359 ft 3 kts 262°
2026-05-04 09:02 -37.67437 144.84717 362 ft 3 kts 262°
2026-05-04 09:02 -37.67436 144.84726 361 ft 0 kts 262°
2026-05-04 09:07 -37.67459 144.84522 357 ft 9 kts 259°
2026-05-04 09:08 -37.67466 144.84474 358 ft 0 kts 260°
2026-05-04 09:08 -37.67469 144.84454 363 ft 9 kts 260°
2026-05-04 09:08 -37.67486 144.84350 362 ft 13 kts 244°
2026-05-04 09:08 -37.67550 144.84333 363 ft 11 kts 156°
2026-05-04 09:09 -37.67634 144.84350 358 ft 14 kts 172°
2026-05-04 09:09 -37.67723 144.84366 360 ft 7 kts 172°
2026-05-04 09:09 -37.67735 144.84369 356 ft 0 kts 171°
2026-05-04 09:10 -37.67743 144.84368 356 ft 4 kts 181°
2026-05-04 09:10 -37.67786 144.84360 355 ft 4 kts 202°
2026-05-04 09:10 -37.67799 144.84352 354 ft 3 kts 211°
2026-05-04 09:10 -37.67803 144.84349 356 ft 0 kts 212°
2026-05-04 09:11 -37.67805 144.84347 360 ft 2 kts 212°
2026-05-04 09:11 -37.67806 144.84346 360 ft 0 kts 212°
2026-05-04 09:11 -37.67809 144.84344 358 ft 3 kts 212°
2026-05-04 09:12 -37.67839 144.84305 351 ft 10 kts 237°
2026-05-04 09:12 -37.67854 144.84224 353 ft 10 kts 257°
2026-05-04 09:14 -37.66531 144.83722 402 ft 150 kts 352°
2026-05-04 09:14 -37.65475 144.83530 1030 ft 151 kts 350°
2026-05-04 09:14 -37.64451 144.83336 1772 ft 153 kts 347°
2026-05-04 09:14 -37.63397 144.83126 2418 ft 157 kts 344°
2026-05-04 09:15 -37.62257 144.82893 2679 ft 177 kts 345°
2026-05-04 09:15 -37.60975 144.82634 2880 ft 195 kts 345°
2026-05-04 09:15 -37.59601 144.82386 3165 ft 210 kts 349°
2026-05-04 09:15 -37.58060 144.82838 3368 ft 248 kts 18°
2026-05-04 09:17 -37.44532 144.91233 9570 ft 294 kts 28°
2026-05-04 09:18 -37.42963 144.92948 10297 ft 305 kts 45°
2026-05-04 09:18 -37.41658 144.95145 10727 ft 325 kts 50°
2026-05-04 09:18 -37.40308 144.97532 10968 ft 346 kts 51°
2026-05-04 09:18 -37.38916 145.00015 11520 ft 354 kts 51°
2026-05-04 09:19 -37.37495 145.02558 12257 ft 358 kts 51°
2026-05-04 09:19 -37.36050 145.05136 13003 ft 362 kts 51°
2026-05-04 09:19 -37.34589 145.07734 13720 ft 366 kts 51°
2026-05-04 09:19 -37.33108 145.10359 14356 ft 370 kts 51°
2026-05-04 09:20 -37.31613 145.13002 15013 ft 373 kts 51°
2026-05-04 09:20 -37.30104 145.15665 15676 ft 376 kts 51°
2026-05-04 09:20 -37.28581 145.18347 16361 ft 379 kts 51°
2026-05-04 09:20 -37.27038 145.21057 17031 ft 383 kts 50°
2026-05-04 09:21 -37.25483 145.23791 17710 ft 386 kts 51°
2026-05-04 09:21 -37.23915 145.26545 18337 ft 390 kts 51°
2026-05-04 09:21 -37.22359 145.29278 18919 ft 392 kts 50°
2026-05-04 09:21 -37.20770 145.32069 19505 ft 395 kts 50°
2026-05-04 09:22 -37.19168 145.34883 20110 ft 397 kts 50°
2026-05-04 09:22 -37.17555 145.37713 20704 ft 400 kts 50°
2026-05-04 09:22 -37.15932 145.40553 21288 ft 403 kts 50°
2026-05-04 09:22 -37.14290 145.43422 21862 ft 406 kts 50°
2026-05-04 09:23 -37.12631 145.46311 22431 ft 409 kts 50°
2026-05-04 09:23 -37.10961 145.49211 23004 ft 412 kts 50°
2026-05-04 09:23 -37.09301 145.52096 23535 ft 416 kts 50°
2026-05-04 09:23 -37.07607 145.55043 23890 ft 418 kts 49°
2026-05-04 09:25 -36.95676 145.75740 24329 ft 422 kts 49°
2026-05-04 09:25 -36.93947 145.78723 24793 ft 425 kts 47°
2026-05-04 09:26 -36.92800 145.80701 25103 ft 425 kts 47°
2026-05-04 09:26 -36.90499 145.84680 25688 ft 428 kts 46°
2026-05-04 09:26 -36.88748 145.87705 26096 ft 431 kts 46°
2026-05-04 09:26 -36.86985 145.90746 26498 ft 434 kts 45°
2026-05-04 09:27 -36.85207 145.93806 26884 ft 436 kts 45°
2026-05-04 09:27 -36.83416 145.96881 27279 ft 439 kts 45°
2026-05-04 09:27 -36.82199 145.98964 27543 ft 441 kts 44°
2026-05-04 09:27 -36.79792 146.03084 28045 ft 445 kts 44°
2026-05-04 09:28 -36.78561 146.05194 28262 ft 447 kts 44°
2026-05-04 09:28 -36.76753 146.08290 28713 ft 448 kts 44°
2026-05-04 09:28 -36.74917 146.11432 29069 ft 450 kts 44°
2026-05-04 09:28 -36.73068 146.14592 29417 ft 453 kts 44°
2026-05-04 09:29 -36.71202 146.17778 29750 ft 456 kts 44°
2026-05-04 09:29 -36.69323 146.20985 30080 ft 459 kts 44°
2026-05-04 09:29 -36.67432 146.24213 30362 ft 462 kts 44°
2026-05-04 09:29 -36.65541 146.27438 30636 ft 464 kts 44°
2026-05-04 09:30 -36.63626 146.30702 30908 ft 467 kts 44°
2026-05-04 09:30 -36.61702 146.33975 31139 ft 469 kts 44°
2026-05-04 09:30 -36.59802 146.37208 31404 ft 472 kts 44°
2026-05-04 09:30 -36.57855 146.40514 31668 ft 474 kts 44°
2026-05-04 09:31 -36.55905 146.43823 32041 ft 474 kts 44°
2026-05-04 09:31 -36.53948 146.47133 32418 ft 474 kts 44°
2026-05-04 09:31 -36.51993 146.50439 32779 ft 475 kts 44°
2026-05-04 09:31 -36.50038 146.53746 33133 ft 475 kts 44°
2026-05-04 09:32 -36.48081 146.57055 33428 ft 476 kts 45°
2026-05-04 09:32 -36.46115 146.60370 33743 ft 477 kts 45°
2026-05-04 09:34 -36.32263 146.83656 35697 ft 482 kts 45°
2026-05-04 09:34 -36.30267 146.86994 35979 ft 482 kts 45°
2026-05-04 09:34 -36.28274 146.90326 36257 ft 482 kts 45°
2026-05-04 09:34 -36.26272 146.93665 36513 ft 483 kts 45°
2026-05-04 09:35 -36.24268 146.97003 36767 ft 483 kts 45°
2026-05-04 09:35 -36.22259 147.00350 36983 ft 484 kts 46°
2026-05-04 09:35 -36.18248 147.07033 37057 ft 482 kts 45°
2026-05-04 09:37 -36.02327 147.33409 37069 ft 479 kts 45°
2026-05-04 09:38 -35.98326 147.40010 37069 ft 480 kts 45°
2026-05-04 09:38 -35.94322 147.46617 37086 ft 480 kts 45°
2026-05-04 09:39 -35.90313 147.53208 37093 ft 480 kts 45°
2026-05-04 09:39 -35.86327 147.59729 37096 ft 480 kts 45°
2026-05-04 09:40 -35.82455 147.66058 37102 ft 479 kts 45°
2026-05-04 09:40 -35.78438 147.72626 37093 ft 480 kts 44°
2026-05-04 09:42 -35.62347 147.98775 37098 ft 481 kts 44°
2026-05-04 09:43 -35.58311 148.05321 37112 ft 481 kts 44°
2026-05-04 09:43 -35.54270 148.11855 37111 ft 480 kts 44°
2026-05-04 09:44 -35.50213 148.18383 37077 ft 480 kts 44°
2026-05-04 09:46 -35.34073 148.44274 37106 ft 479 kts 43°
2026-05-04 09:46 -35.30016 148.50737 37109 ft 479 kts 44°
2026-05-04 09:47 -35.25962 148.57201 37106 ft 478 kts 44°
2026-05-04 09:49 -35.09739 148.82967 37105 ft 479 kts 43°
2026-05-04 09:49 -35.07700 148.86185 36973 ft 479 kts 43°
2026-05-04 09:51 -34.95550 149.05317 35454 ft 473 kts 43°
2026-05-04 09:51 -34.93554 149.08459 35215 ft 469 kts 43°
2026-05-04 09:51 -34.91556 149.11596 34984 ft 466 kts 43°
2026-05-04 09:51 -34.89594 149.14672 34723 ft 465 kts 42°
2026-05-04 09:52 -34.87611 149.17778 34488 ft 462 kts 42°
2026-05-04 09:52 -34.85654 149.20837 34066 ft 460 kts 42°
2026-05-04 09:52 -34.83683 149.23916 33516 ft 458 kts 42°
2026-05-04 09:52 -34.81729 149.26967 33018 ft 455 kts 42°
2026-05-04 09:53 -34.79795 149.29983 32506 ft 452 kts 42°
2026-05-04 09:53 -34.77872 149.32983 32003 ft 449 kts 42°
2026-05-04 09:53 -34.75955 149.35971 31478 ft 446 kts 42°
2026-05-04 09:53 -34.74093 149.38994 30997 ft 449 kts 47°
2026-05-04 09:54 -34.72553 149.42304 30527 ft 452 kts 53°
2026-05-04 09:54 -34.71090 149.45679 30048 ft 449 kts 53°
2026-05-04 09:54 -34.69642 149.49021 29528 ft 444 kts 53°
2026-05-04 09:54 -34.68234 149.52266 29087 ft 439 kts 53°
2026-05-04 09:55 -34.66816 149.55525 28649 ft 433 kts 53°
2026-05-04 09:55 -34.65413 149.58739 28211 ft 428 kts 52°
2026-05-04 09:55 -34.64019 149.61919 27768 ft 423 kts 53°
2026-05-04 09:55 -34.62635 149.65064 27368 ft 418 kts 52°
2026-05-04 09:56 -34.61278 149.68151 27075 ft 412 kts 52°
2026-05-04 09:56 -34.59941 149.71200 27092 ft 408 kts 52°
2026-05-04 09:56 -34.58599 149.74247 26694 ft 412 kts 52°
2026-05-04 09:56 -34.57226 149.77348 25839 ft 421 kts 53°
2026-05-04 09:57 -34.55842 149.80490 25274 ft 422 kts 53°
2026-05-04 09:57 -34.54468 149.83616 24832 ft 419 kts 53°
2026-05-04 09:57 -34.53120 149.86686 24392 ft 417 kts 53°
2026-05-04 09:57 -34.51762 149.89775 23941 ft 414 kts 53°
2026-05-04 09:58 -34.50411 149.92839 23479 ft 412 kts 53°
2026-05-04 09:58 -34.49066 149.95882 23050 ft 408 kts 53°
2026-05-04 09:58 -34.47747 149.98871 22582 ft 397 kts 53°
2026-05-04 10:00 -34.38829 150.18939 21058 ft 384 kts 53°
2026-05-04 10:00 -34.37579 150.21743 21067 ft 384 kts 54°
2026-05-04 10:02 -34.28681 150.41656 21052 ft 384 kts 53°
2026-05-04 10:04 -34.19813 150.61465 21034 ft 383 kts 54°
2026-05-04 10:04 -34.18538 150.64296 21047 ft 383 kts 54°
2026-05-04 10:04 -34.17264 150.67126 21029 ft 384 kts 54°
2026-05-04 10:04 -34.15977 150.69982 20295 ft 392 kts 54°
2026-05-04 10:05 -34.14697 150.72841 20016 ft 384 kts 55°
2026-05-04 10:05 -34.13440 150.75657 19725 ft 375 kts 55°
2026-05-04 10:05 -34.12207 150.78404 19399 ft 370 kts 55°
2026-05-04 10:05 -34.10973 150.81137 18881 ft 369 kts 55°
2026-05-04 10:06 -34.09755 150.83836 18353 ft 365 kts 55°
2026-05-04 10:06 -34.08545 150.86516 17743 ft 361 kts 55°
2026-05-04 10:06 -34.07352 150.89160 17152 ft 357 kts 56°
2026-05-04 10:08 -34.05652 151.05247 13935 ft 369 kts 129°
2026-05-04 10:08 -34.07563 151.07289 13423 ft 368 kts 152°
2026-05-04 10:08 -34.09954 151.08322 12924 ft 363 kts 172°
2026-05-04 10:08 -34.12445 151.08804 12416 ft 362 kts 172°
2026-05-04 10:09 -34.14884 151.09371 11922 ft 362 kts 170°
2026-05-04 10:09 -34.17342 151.10019 11433 ft 361 kts 169°
2026-05-04 10:09 -34.19785 151.10694 10914 ft 361 kts 169°
2026-05-04 10:09 -34.22240 151.11378 10314 ft 363 kts 169°
2026-05-04 10:10 -34.24679 151.12051 9699 ft 356 kts 169°
2026-05-04 10:10 -34.27066 151.12707 9050 ft 349 kts 169°
2026-05-04 10:10 -34.29416 151.13354 8418 ft 344 kts 169°
2026-05-04 10:10 -34.31725 151.14040 7801 ft 339 kts 162°
2026-05-04 10:11 -34.33754 151.15421 7194 ft 334 kts 137°
2026-05-04 10:11 -34.35159 151.17604 6600 ft 331 kts 112°
2026-05-04 10:11 -34.35720 151.20223 6121 ft 320 kts 86°
2026-05-04 10:11 -34.35347 151.22753 5996 ft 298 kts 59°
2026-05-04 10:12 -34.34165 151.24727 6004 ft 285 kts 34°
2026-05-04 10:12 -34.32502 151.25944 6004 ft 277 kts 17°
2026-05-04 10:12 -34.30665 151.26543 5850 ft 272 kts
2026-05-04 10:12 -34.28800 151.26496 5599 ft 265 kts 348°
2026-05-04 10:13 -34.27004 151.26035 5345 ft 265 kts 346°
2026-05-04 10:13 -34.25213 151.25565 5105 ft 263 kts 346°
2026-05-04 10:13 -34.23422 151.25097 4866 ft 264 kts 346°
2026-05-04 10:13 -34.21634 151.24630 4613 ft 262 kts 347°
2026-05-04 10:14 -34.19853 151.24166 4361 ft 262 kts 347°
2026-05-04 10:14 -34.18075 151.23701 4196 ft 263 kts 346°
2026-05-04 10:16 -34.07335 151.20902 2178 ft 179 kts 348°
2026-05-04 10:16 -34.06125 151.20587 1945 ft 177 kts 348°
2026-05-04 10:16 -34.04926 151.20275 1703 ft 170 kts 348°
2026-05-04 10:16 -34.03789 151.19979 1502 ft 160 kts 348°
2026-05-04 10:17 -34.02741 151.19706 1293 ft 149 kts 348°
2026-05-04 10:17 -34.01728 151.19443 1084 ft 149 kts 348°
2026-05-04 10:19 -33.94961 151.17687 21 ft 87 kts 349°
2026-05-04 10:19 -33.94539 151.17576 25 ft 41 kts 348°
2026-05-04 10:19 -33.94278 151.17513 27 ft 36 kts 347°
2026-05-04 10:19 -33.94034 151.17445 18 ft 36 kts 348°
2026-05-04 10:20 -33.93899 151.17417 18 ft 14 kts 347°
2026-05-04 10:20 -33.93846 151.17464 19 ft 0 kts 65°
2026-05-04 10:20 -33.93844 151.17471 18 ft 2 kts 69°
2026-05-04 10:20 -33.93839 151.17489 21 ft 3 kts 71°
2026-05-04 10:21 -33.93829 151.17522 19 ft 5 kts 71°
2026-05-04 10:21 -33.93814 151.17573 19 ft 7 kts 61°
2026-05-04 10:21 -33.93794 151.17580 18 ft 1 kts 355°
2026-05-04 10:21 -33.93785 151.17579 18 ft 0 kts 350°
2026-05-04 10:22 -33.93776 151.17577 18 ft 6 kts 350°
2026-05-04 10:22 -33.93715 151.17565 18 ft 11 kts 354°
2026-05-04 10:22 -33.93660 151.17598 23 ft 6 kts 55°
2026-05-04 10:23 -33.93657 151.17607 24 ft 1 kts 68°
2026-05-04 10:23 -33.93659 151.17707 30 ft 15 kts 102°
2026-05-04 10:25 -33.93627 151.17893 31 ft 0 kts 98°